Regional Weather Roundup
Issued by NWS

Home | Current Version | Previous Version | Graphics & Text | Print | Product List | Glossary On
Versions: 1 2 3 4 5 6 7 8 9 10 11 12 13 14 15 16 17 18 19 20 21 22 23 24 25 26 27 28 29 30 31 32 33 34 35 36 37 38 39 40 41 42 43 44 45 46 47 48 49 50
979
ASUS43 KLSX 212310
RWRMO

WEATHER SUMMARY FOR MISSOURI
NATIONAL WEATHER SERVICE SPRINGFIELD MO
500 PM CST SAT JAN 21 2017

NOTE: "FAIR" INDICATES FEW OR NO CLOUDS BELOW 12,000 FEET WITH NO
       SIGNIFICANT WEATHER AND/OR OBSTRUCTIONS TO VISIBILITY.
       CURRENT SKY AND/OR WEATHER CONDITIONS ARE NOT AVAILABLE FOR
       CHILLICOTHE AND FARMINGTON.

MOZ001>031-035>038-043-044-053-054-220000-
...NORTHERN AND WESTERN MISSOURI...

CITY           SKY/WX    TMP DP  RH WIND       PRES   REMARKS
KANSAS CTY INT MOCLDY    51  39  63 SE6       29.49S
KANSAS C DTWN  PTCLDY    54  40  59 S6        29.49S
LEE`S SUMMIT   CLOUDY    53  41  63 SE5       29.50R
ST JOSEPH      CLEAR     50  43  77 S5        29.50R
CHILLICOTHE      N/A     49  42  77 CALM      29.53R
KIRKSVILLE     CLEAR     45  41  86 CALM      29.53R

$$
MOZ066>068-077>081-088>096-101>105-220000-
...SOUTHWEST MISSOURI...

CITY           SKY/WX    TMP DP  RH WIND       PRES   REMARKS
SPRINGFIELD    CLOUDY    60  42  51 CALM      29.48S
JOPLIN         CLOUDY    60  41  49 CALM      29.47R
BRANSON        CLOUDY    64  39  39 SE6       29.49S

$$
MOZ032>034-039>042-045>050-055>058-069>072-220000-
...CENTRAL MISSOURI...

CITY           SKY/WX    TMP DP  RH WIND       PRES   REMARKS
COLUMBIA       CLOUDY    58  39  49 SW5       29.52R
JEFFERSON CITY CLOUDY    61  37  41 NW3       29.51R
ROLLA          CLOUDY    60  41  49 SW3       29.50R
SEDALIA        CLOUDY    57  40  52 CALM      29.53R
WHITEMAN AFB   CLOUDY    54  45  71 CALM      29.50S
WARRENSBURG    LGT RAIN  52  43  71 CALM      29.50S
OSAGE BEACH    CLOUDY    60  38  43 CALM      29.52R

$$
MOZ051-052-059>065-220000-
...EAST CENTRAL MISSOURI...

CITY           SKY/WX    TMP DP  RH WIND       PRES   REMARKS
ST LOUIS INTL  MOCLDY    65  37  35 W5        29.51R
SPIRIT OF STL  CLOUDY    58  44  60 CALM      29.50R
ST CHARLES     PTCLDY    62  43  49 NW5       29.50R

$$
MOZ072>076-082>087-097>100-106>115-220000-
...SOUTH CENTRAL AND SOUTHEAST MISSOURI...

CITY           SKY/WX    TMP DP  RH WIND       PRES   REMARKS
CAPE GIRARDEAU CLOUDY    62  53  72 S7        29.55R
FARMINGTON     PTCLDY    62  51  67 S6        29.53S
POPLAR BLUFF   CLOUDY    63  57  81 S7        29.54S
WEST PLAINS    MOCLDY    65  43  44 S6        29.52R

$$




USA.gov is the U.S. government's official web portal to all federal, state and local government web resources and services.